• In Belgium
  • List of Countries
  • For 7 days
  • Water Temperature
  • Satellite Maps
  • Weather Map
  • Weather Widgets
  • user-avatar
    Login

    Hourly Weather Talavera de la Reina

    Today, 16 August, Thursday

    Time Temperature Precipitation Wind Pressure Humidity
    00:00 +27°C° 0 mm 2 mps 727 mmHg 33%
    01:00 +26°C° 0 mm 2 mps 727 mmHg 34%
    02:00 +25°C° 0 mm 2 mps 727 mmHg 36%
    03:00 +25°C° 0 mm 1 mps 727 mmHg 38%
    04:00 +24°C° 0 mm 1 mps 727 mmHg 40%
    05:00 +24°C° 0 mm 1 mps 727 mmHg 42%
    06:00 +24°C° 0 mm 1 mps 727 mmHg 45%
    07:00 +26°C° 0 mm 1 mps 727 mmHg 41%
    08:00 +29°C° 0 mm 2 mps 728 mmHg 37%
    09:00 +31°C° 0 mm 2 mps 728 mmHg 33%
    10:00 +33°C° 0 mm 3 mps 727 mmHg 29%
    11:00 +35°C° 0 mm 3 mps 727 mmHg 25%
    12:00 +37°C° 0 mm 3 mps 727 mmHg 22%
    13:00 +37°C° 0 mm 3 mps 727 mmHg 21%
    14:00 +37°C° 0 mm 3 mps 726 mmHg 21%
    15:00 +37°C° 0 mm 3 mps 726 mmHg 20%
    16:00 +36°C° 0 mm 3 mps 726 mmHg 21%
    17:00 +36°C° 0 mm 3 mps 725 mmHg 22%
    18:00 +35°C° 0 mm 3 mps 725 mmHg 23%
    19:00 +33°C° 0.2 mm 3 mps 726 mmHg 27%
    20:00 +30°C° 0.2 mm 2 mps 726 mmHg 32%
    21:00 +29°C° 0.2 mm 2 mps 726 mmHg 36%
    22:00 +28°C° 0 mm 2 mps 726 mmHg 39%
    23:00 +27°C° 0 mm 2 mps 727 mmHg 41%

    Tomorrow, 17 August, Friday

    Time Temperature Precipitation Wind Pressure Humidity
    00:00 +26°C° 0 mm 1 mps 727 mmHg 44%
    01:00 +25°C° 0 mm 1 mps 727 mmHg 46%
    02:00 +25°C° 0 mm 1 mps 727 mmHg 49%
    03:00 +24°C° 0 mm 1 mps 727 mmHg 52%
    04:00 +24°C° 0 mm 2 mps 727 mmHg 54%
    05:00 +23°C° 0 mm 2 mps 727 mmHg 56%
    06:00 +23°C° 0 mm 2 mps 727 mmHg 59%
    07:00 +25°C° 0 mm 2 mps 728 mmHg 53%
    08:00 +28°C° 0 mm 2 mps 728 mmHg 47%
    09:00 +30°C° 0 mm 3 mps 728 mmHg 41%
    10:00 +32°C° 0 mm 2 mps 728 mmHg 36%
    11:00 +35°C° 0 mm 2 mps 728 mmHg 31%
    12:00 +37°C° 0 mm 2 mps 728 mmHg 27%
    13:00 +36°C° 0 mm 1 mps 728 mmHg 26%
    14:00 +36°C° 0 mm 1 mps 727 mmHg 25%
    15:00 +36°C° 0 mm 1 mps 727 mmHg 24%
    16:00 +35°C° 0 mm 1 mps 727 mmHg 25%
    17:00 +35°C° 0 mm 2 mps 727 mmHg 25%
    18:00 +35°C° 0 mm 2 mps 727 mmHg 26%
    19:00 +32°C° 0 mm 2 mps 727 mmHg 30%
    20:00 +30°C° 0 mm 3 mps 728 mmHg 34%
    21:00 +29°C° 0 mm 3 mps 728 mmHg 38%
    22:00 +28°C° 0 mm 4 mps 728 mmHg 42%
    23:00 +27°C° 0 mm 4 mps 729 mmHg 46%

    Day after tomorrow, 18 August, Saturday

    Time Temperature Precipitation Wind Pressure Humidity
    00:00 +26°C° 0 mm 4 mps 729 mmHg 50%
    01:00 +25°C° 0 mm 4 mps 729 mmHg 53%
    02:00 +25°C° 0 mm 4 mps 729 mmHg 55%
    03:00 +24°C° 0 mm 3 mps 729 mmHg 58%
    04:00 +24°C° 0 mm 3 mps 729 mmHg 59%
    05:00 +22°C° 0 mm 3 mps 729 mmHg 60%
    06:00 +23°C° 0 mm 2 mps 729 mmHg 61%
    07:00 +25°C° 0 mm 3 mps 729 mmHg 54%
    08:00 +27°C° 0 mm 3 mps 729 mmHg 48%
    09:00 +29°C° 0 mm 3 mps 729 mmHg 42%
    10:00 +31°C° 0 mm 3 mps 729 mmHg 37%
    11:00 +34°C° 0 mm 3 mps 729 mmHg 33%
    12:00 +36°C° 0 mm 2 mps 729 mmHg 28%
    13:00 +37°C° 0 mm 2 mps 728 mmHg 27%
    14:00 +36°C° 0 mm 1 mps 728 mmHg 25%
    15:00 +36°C° 0 mm 1 mps 727 mmHg 24%
    16:00 +36°C° 0 mm 1 mps 727 mmHg 25%
    17:00 +35°C° 0 mm 1 mps 727 mmHg 25%
    18:00 +35°C° 0 mm 1 mps 727 mmHg 26%
    19:00 +34°C° 0 mm 2 mps 727 mmHg 29%
    20:00 +31°C° 0 mm 2 mps 728 mmHg 31%
    21:00 +29°C° 0 mm 2 mps 728 mmHg 34%
    22:00 +29°C° 0 mm 2 mps 728 mmHg 35%
    23:00 +28°C° 0 mm 2 mps 728 mmHg 37%

    19 August, Sunday

    Time Temperature Precipitation Wind Pressure Humidity
    00:00 +28°C° 0 mm 2 mps 728 mmHg 38%
    01:00 +27°C° 0 mm 2 mps 728 mmHg 42%
    02:00 +26°C° 0 mm 3 mps 728 mmHg 46%
    03:00 +26°C° 0 mm 3 mps 728 mmHg 51%
    04:00 +25°C° 0 mm 3 mps 728 mmHg 54%
    05:00 +25°C° 0 mm 3 mps 729 mmHg 58%
    06:00 +25°C° 0 mm 3 mps 729 mmHg 62%
    07:00 +27°C° 0 mm 3 mps 729 mmHg 56%
    08:00 +29°C° 0 mm 3 mps 729 mmHg 51%
    09:00 +31°C° 0 mm 3 mps 729 mmHg 45%
    10:00 +34°C° 0 mm 3 mps 729 mmHg 40%
    11:00 +36°C° 0 mm 3 mps 729 mmHg 34%
    12:00 +38°C° 0 mm 2 mps 729 mmHg 28%
    13:00 +38°C° 0.1 mm 2 mps 729 mmHg 28%
    14:00 +37°C° 0.1 mm 1 mps 728 mmHg 27%
    15:00 +37°C° 0.1 mm 1 mps 728 mmHg 27%
    16:00 +36°C° 0.1 mm 1 mps 728 mmHg 27%
    17:00 +36°C° 0.1 mm 1 mps 728 mmHg 28%
    18:00 +35°C° 0.1 mm 1 mps 728 mmHg 29%
    19:00 +34°C° 0.1 mm 1 mps 728 mmHg 32%
    20:00 +32°C° 0.1 mm 1 mps 728 mmHg 35%
    21:00 +31°C° 0.1 mm 1 mps 728 mmHg 38%
    22:00 +30°C° 0.3 mm 1 mps 728 mmHg 41%
    23:00 +29°C° 0.3 mm 2 mps 728 mmHg 43%

    20 August, Monday

    Time Temperature Precipitation Wind Pressure Humidity
    00:00 +28°C° 0.3 mm 2 mps 729 mmHg 46%
    01:00 +28°C° 0.3 mm 2 mps 729 mmHg 49%
    02:00 +27°C° 0.3 mm 3 mps 728 mmHg 53%
    03:00 +27°C° 0.3 mm 3 mps 728 mmHg 56%
    04:00 +27°C° 0.2 mm 3 mps 729 mmHg 59%
    05:00 +26°C° 0.2 mm 3 mps 729 mmHg 63%
    06:00 +26°C° 0.2 mm 3 mps 729 mmHg 66%
    07:00 +27°C° 0.2 mm 3 mps 729 mmHg 59%
    08:00 +29°C° 0.2 mm 3 mps 729 mmHg 52%
    09:00 +31°C° 0.2 mm 3 mps 730 mmHg 45%
    10:00 +34°C° 0 mm 3 mps 729 mmHg 40%
    11:00 +36°C° 0 mm 3 mps 729 mmHg 34%
    12:00 +38°C° 0 mm 2 mps 729 mmHg 29%
    13:00 +38°C° 0.2 mm 2 mps 729 mmHg 28%
    14:00 +38°C° 0.2 mm 2 mps 728 mmHg 28%
    15:00 +37°C° 0.2 mm 2 mps 728 mmHg 28%
    16:00 +36°C° 1 mm 2 mps 727 mmHg 32%
    17:00 +35°C° 1 mm 3 mps 727 mmHg 36%
    18:00 +33°C° 1 mm 4 mps 727 mmHg 40%
    19:00 +31°C° 1.3 mm 3 mps 727 mmHg 45%
    20:00 +29°C° 1.3 mm 3 mps 728 mmHg 50%
    21:00 +28°C° 1.3 mm 2 mps 728 mmHg 55%
    22:00 +27°C° 0.1 mm 2 mps 728 mmHg 55%
    23:00 +27°C° 0.1 mm 1 mps 728 mmHg 55%

    21 August, Tuesday

    Time Temperature Precipitation Wind Pressure Humidity
    00:00 +27°C° 0.1 mm 1 mps 728 mmHg 55%
    01:00 +27°C° 0.4 mm 1 mps 728 mmHg 57%
    02:00 +26°C° 0.4 mm 2 mps 728 mmHg 58%
    03:00 +26°C° 0.4 mm 2 mps 728 mmHg 60%
    04:00 +25°C° 0.5 mm 2 mps 728 mmHg 61%
    05:00 +25°C° 0.5 mm 2 mps 728 mmHg 63%
    06:00 +24°C° 0.5 mm 2 mps 729 mmHg 64%
    07:00 +26°C° 0.1 mm 2 mps 729 mmHg 57%
    08:00 +28°C° 0.1 mm 3 mps 729 mmHg 49%
    09:00 +30°C° 0.1 mm 3 mps 729 mmHg 42%
    10:00 +31°C° 0 mm 3 mps 729 mmHg 37%
    11:00 +34°C° 0 mm 3 mps 728 mmHg 32%
    12:00 +35°C° 0 mm 3 mps 728 mmHg 27%
    13:00 +36°C° 0 mm 2 mps 728 mmHg 26%
    14:00 +36°C° 0 mm 2 mps 727 mmHg 25%
    15:00 +37°C° 0 mm 2 mps 727 mmHg 23%
    16:00 +37°C° 0 mm 2 mps 727 mmHg 24%
    17:00 +36°C° 0 mm 2 mps 726 mmHg 24%
    18:00 +35°C° 0 mm 1 mps 726 mmHg 24%
    19:00 +33°C° 0.1 mm 1 mps 727 mmHg 28%
    20:00 +31°C° 0.1 mm 1 mps 727 mmHg 31%
    21:00 +29°C° 0.1 mm 1 mps 727 mmHg 34%
    22:00 +29°C° 0 mm 1 mps 727 mmHg 35%
    23:00 +28°C° 0 mm 1 mps 727 mmHg 35%
    Show more